Change the Weather History Date:

Monday, December 10, 2012

  Actual Average Record
Temperature  
Mean Temperature 67 °F 47 °F  
Max Temperature 73 °F 58 °F 80 °F (2007)
Min Temperature 61 °F 36 °F 21 °F (2006)
Degree Days  
Heating Degree Days 0 18  
Month to date heating degree days 68 166  
Since 1 July heating degree days 666 632  
Cooling Degree Days 2 0  
Month to date cooling degree days 2 0  
Year to date cooling degree days 2055 1907  
Growing Degree Days 16 (Base 50)    
Moisture  
Dew Point 61 °F    
Average Humidity 81    
Maximum Humidity 100    
Minimum Humidity 61    
Precipitation  
Precipitation T in 0.10 in 1.19 in (2003)
Month to date precipitation 0.10 1.05  
Year to date precipitation 40.78 41.68  
Sea Level Pressure  
Sea Level Pressure 29.87 in    
Wind  
Wind Speed 5 mph (SW)    
Max Wind Speed 22 mph    
Max Gust Speed 28 mph    
Visibility 5 miles    
Events Fog    
T = Trace of Precipitation, MM = Missing Value Source: NWS Daily Summary

Daily Weather History Graph

Daily Weather History Graph

Search for Another Location

Airport or City:

Trip Planner

Search our weather history database for the weather conditions in past years. The results will help you decide how hot, cold, wet, or windy it might be!

Date:

Astronomy

Dec. 10, 2012 Rise Set
Actual Time 7:12 AM EST 5:05 PM EST
Civil Twilight 6:44 AM EST 5:33 PM EST
Nautical Twilight 6:13 AM EST 6:05 PM EST
Astronomical Twilight 5:42 AM EST 6:35 PM EST
Moon 3:58 AM EST (12/10) 2:50 PM EST (12/10)
Length of Visible Light 10h 48m
Length of Day
9h 53m
Waning Crescent, 10% of the Moon is Illuminated
Dec 10
Waning Crescent
Dec 13
New
Dec 20
First Quarter
Dec 28
Full
Jan 4
Last Quarter

Hourly Weather History & Observations

Time (EST) Temp. Dew Point Humidity Pressure Visibility Wind Dir Wind Speed Gust Speed Precip Events Conditions
12:26 AM 60.8 °F 60.8 °F 100% 29.98 in 2.0 mi Calm Calm - N/A   Mostly Cloudy
12:35 AM 62.6 °F 60.8 °F 94% 29.97 in 3.0 mi Calm Calm - N/A   Mostly Cloudy
12:37 AM 62.6 °F 60.8 °F 94% 29.97 in 1.8 mi Calm Calm - N/A   Overcast
12:48 AM 62.6 °F 60.8 °F 94% 29.97 in 2.0 mi Calm Calm - N/A   Overcast
12:54 AM 62.1 °F 61.0 °F 96% 29.96 in 3.0 mi Calm Calm - N/A   Overcast
1:10 AM 62.6 °F 62.6 °F 100% 29.96 in 1.5 mi Calm Calm - N/A   Overcast
1:14 AM 62.6 °F 62.6 °F 100% 29.96 in 0.8 mi Calm Calm - N/A   Overcast
1:54 AM 62.1 °F 62.1 °F 100% 29.95 in 1.5 mi Calm Calm - N/A   Overcast
2:06 AM 62.6 °F 62.6 °F 100% 29.95 in 0.8 mi Calm Calm - N/A   Overcast
2:54 AM 62.1 °F 62.1 °F 100% 29.93 in 0.2 mi Calm Calm - N/A Fog Fog
3:54 AM 63.0 °F 63.0 °F 100% 29.91 in 0.2 mi Calm Calm - N/A Fog Fog
4:36 AM 62.6 °F 62.6 °F 100% 29.89 in 0.8 mi Calm Calm - N/A   Overcast
4:54 AM 63.0 °F 63.0 °F 100% 29.89 in 0.2 mi Calm Calm - N/A Fog Fog
5:04 AM 62.6 °F 62.6 °F 100% 29.88 in 1.2 mi Calm Calm - N/A   Overcast
5:09 AM 62.6 °F 62.6 °F 100% 29.88 in 2.5 mi Calm Calm - N/A   Overcast
5:16 AM 62.6 °F 62.6 °F 100% 29.88 in 4.0 mi South 3.5 mph - N/A   Overcast
5:54 AM 63.0 °F 63.0 °F 100% 29.89 in 5.0 mi SW 3.5 mph - 0.00 in   Overcast
6:08 AM 64.4 °F 62.6 °F 94% 29.88 in 4.0 mi SW 3.5 mph - N/A   Overcast
6:22 AM 64.4 °F 62.6 °F 94% 29.89 in 1.8 mi SW 4.6 mph - N/A   Overcast
6:26 AM 64.4 °F 62.6 °F 94% 29.88 in 1.0 mi SW 4.6 mph - N/A   Overcast
6:35 AM 64.4 °F 64.4 °F 100% 29.88 in 0.5 mi SW 5.8 mph - N/A Fog Fog
6:43 AM 64.4 °F 62.6 °F 94% 29.88 in 0.5 mi SW 6.9 mph - N/A Fog Fog
6:54 AM 64.0 °F 63.0 °F 96% 29.88 in 0.5 mi SW 4.6 mph - N/A Fog Fog
7:07 AM 62.6 °F 62.6 °F 100% 29.88 in 1.0 mi SW 5.8 mph - N/A   Overcast
7:17 AM 62.6 °F 62.6 °F 100% 29.88 in 0.8 mi SW 4.6 mph - N/A   Mist
8:32 AM 64.4 °F 62.6 °F 94% 29.88 in 1.2 mi SW 8.1 mph - N/A   Overcast
8:36 AM 64.4 °F 64.4 °F 100% 29.88 in 2.0 mi SW 6.9 mph - N/A   Overcast
8:54 AM 64.0 °F 64.0 °F 100% 29.88 in 3.0 mi SW 4.6 mph - N/A   Overcast
9:54 AM 64.9 °F 64.0 °F 97% 29.87 in 4.0 mi SW 8.1 mph - N/A   Overcast
10:04 AM 64.4 °F 64.4 °F 100% 29.88 in 4.0 mi SW 6.9 mph - N/A   Overcast
10:26 AM 66.2 °F 64.4 °F 94% 29.87 in 5.0 mi SW 10.4 mph - N/A   Overcast
10:42 AM 66.2 °F 64.4 °F 94% 29.87 in 6.0 mi SW 9.2 mph - N/A   Overcast
10:52 AM 69.8 °F 64.4 °F 83% 29.86 in 7.0 mi SW 9.2 mph 16.1 mph N/A   Mostly Cloudy
10:54 AM 69.1 °F 64.0 °F 84% 29.86 in 8.0 mi SW 9.2 mph 16.1 mph N/A   Mostly Cloudy
11:03 AM 69.8 °F 62.6 °F 78% 29.86 in 9.0 mi SW 8.1 mph - N/A   Scattered Clouds
11:18 AM 69.8 °F 62.6 °F 78% 29.85 in 9.0 mi WSW 12.7 mph - N/A   Mostly Cloudy
11:43 AM 71.6 °F 60.8 °F 69% 29.84 in 10.0 mi WSW 15.0 mph 21.9 mph N/A   Scattered Clouds
11:54 AM 70.0 °F 60.1 °F 71% 29.83 in 10.0 mi SW 12.7 mph 20.7 mph N/A   Clear
12:54 PM 72.0 °F 57.0 °F 59% 29.82 in 10.0 mi WSW 17.3 mph 25.3 mph N/A   Clear
1:54 PM 72.0 °F 57.0 °F 59% 29.78 in 10.0 mi SW 11.5 mph - N/A   Clear
2:54 PM 72.0 °F 57.0 °F 59% 29.77 in 10.0 mi SW 10.4 mph - N/A   Clear
3:54 PM 72.0 °F 57.0 °F 59% 29.77 in 10.0 mi SSW 11.5 mph 17.3 mph N/A   Partly Cloudy
4:54 PM 70.0 °F 57.9 °F 65% 29.76 in 10.0 mi South 5.8 mph - N/A   Clear
5:54 PM 68.0 °F 57.9 °F 70% 29.76 in 9.0 mi South 3.5 mph - N/A   Mostly Cloudy
6:54 PM 66.0 °F 57.9 °F 75% 29.78 in 10.0 mi South 5.8 mph - N/A   Partly Cloudy
7:54 PM 64.9 °F 57.9 °F 78% 29.78 in 10.0 mi South 3.5 mph - N/A   Clear
8:54 PM 64.0 °F 57.9 °F 80% 29.76 in 10.0 mi South 3.5 mph - N/A   Partly Cloudy
9:54 PM 64.0 °F 59.0 °F 84% 29.77 in 10.0 mi SSW 4.6 mph - N/A   Scattered Clouds
10:54 PM 63.0 °F 57.9 °F 84% 29.77 in 10.0 mi South 5.8 mph - N/A   Partly Cloudy
11:54 PM 63.0 °F 57.9 °F 84% 29.75 in 10.0 mi Calm Calm - N/A   Clear